Change the Weather History Date:

Tuesday, December 17, 2013

  Actual Average Record
Temperature  
Mean Temperature 72 °F 72 °F  
Max Temperature 81 °F 79 °F 86 °F (1967)
Min Temperature 63 °F 65 °F 59 °F (1955)
Degree Days  
Heating Degree Days 0 0  
Month to date heating degree days 0 0  
Since 1 July heating degree days 0 0  
Cooling Degree Days 7 7  
Month to date cooling degree days 143 128  
Year to date cooling degree days 3419 3135  
Growing Degree Days 22 (Base 50)    
Moisture  
Dew Point 62 °F    
Average Humidity 78    
Maximum Humidity 93    
Minimum Humidity 62    
Precipitation  
Precipitation 0.00 in 0.36 in 5.13 in (1993)
Month to date precipitation 1.44 6.78  
Year to date precipitation 83.42 121.93  
Snow  
Snow 0.00 in - - ()
Month to date snowfall 0.0  
Since 1 July snowfall 0.0  
Snow Depth 0.00 in    
Sea Level Pressure  
Sea Level Pressure 29.99 in    
Wind  
Wind Speed 7 mph (NW)    
Max Wind Speed 13 mph    
Max Gust Speed 16 mph    
Visibility 10 miles    
Events      
T = Trace of Precipitation, MM = Missing Value Source: NWS Daily Summary

Daily Weather History Graph

Daily Weather History Graph

Search for Another Location

Airport or City:

Trip Planner

Search our weather history database for the weather conditions in past years. The results will help you decide how hot, cold, wet, or windy it might be!

Date:

Astronomy

Dec. 17, 2013 Rise Set
Actual Time 6:48 AM HST 5:44 PM HST
Civil Twilight 6:24 AM HST 6:08 PM HST
Nautical Twilight 5:56 AM HST 6:36 PM HST
Astronomical Twilight 5:29 AM HST 7:03 PM HST
Moon 6:25 PM HST (12/17) 7:00 AM HST (12/17)
Length of Visible Light 11h 44m
Length of Day
10h 56m
Full, 100% of the Moon is Illuminated
Dec 17
Full
Dec 25
Last Quarter
Jan 1
New
Jan 7
First Quarter
Jan 15
Full

Hourly Weather History & Observations

Time (HST) Temp. Heat Index Dew Point Humidity Pressure Visibility Wind Dir Wind Speed Gust Speed Precip Events Conditions
12:53 AM 66.9 °F - 62.1 °F 84% 29.98 in 10.0 mi SW 6.9 mph - N/A   Partly Cloudy
1:53 AM 64.9 °F - 59.0 °F 81% 29.98 in 10.0 mi WSW 6.9 mph - N/A   Scattered Clouds
2:53 AM 64.9 °F - 59.0 °F 81% 29.97 in 10.0 mi WSW 8.1 mph - N/A   Scattered Clouds
3:53 AM 64.9 °F - 57.9 °F 78% 29.97 in 10.0 mi WSW 8.1 mph - N/A   Partly Cloudy
4:53 AM 64.0 °F - 57.0 °F 78% 29.98 in 10.0 mi SW 6.9 mph - N/A   Partly Cloudy
5:53 AM 64.0 °F - 55.9 °F 75% 29.99 in 10.0 mi SW 6.9 mph - N/A   Partly Cloudy
6:53 AM 64.0 °F - 55.0 °F 73% 30.00 in 10.0 mi WSW 8.1 mph - N/A   Partly Cloudy
7:53 AM 66.9 °F - 55.0 °F 66% 30.02 in 10.0 mi SW 6.9 mph - N/A   Clear
8:53 AM 73.9 °F - 61.0 °F 64% 30.03 in 10.0 mi West 3.5 mph - N/A   Scattered Clouds
9:53 AM 78.1 °F - 68.0 °F 71% 30.04 in 10.0 mi NNE 5.8 mph - N/A   Clear
10:53 AM 78.1 °F - 68.0 °F 71% 30.02 in 10.0 mi NNE 8.1 mph - N/A   Scattered Clouds
11:53 AM 80.1 °F 82.3 °F 66.9 °F 64% 30.00 in 10.0 mi North 9.2 mph - N/A   Scattered Clouds
12:53 PM 79.0 °F - 68.0 °F 69% 29.97 in 10.0 mi North 9.2 mph - N/A   Partly Cloudy
1:53 PM 80.1 °F 82.1 °F 66.0 °F 62% 29.95 in 10.0 mi North 9.2 mph - N/A   Scattered Clouds
2:53 PM 77.0 °F - 66.0 °F 69% 29.95 in 10.0 mi NNE 9.2 mph - N/A   Partly Cloudy
3:53 PM 75.9 °F - 66.0 °F 71% 29.95 in 10.0 mi NNE 6.9 mph - N/A   Overcast
4:53 PM 75.0 °F - 64.9 °F 71% 29.96 in 10.0 mi NNE 9.2 mph - N/A   Mostly Cloudy
6:53 PM 75.0 °F - 64.9 °F 71% 30.00 in 10.0 mi NNE 6.9 mph - N/A   Overcast
8:53 PM 73.9 °F - 64.9 °F 73% 30.03 in 10.0 mi NE 5.8 mph - N/A   Partly Cloudy
11:54 PM 68.0 °F - 64.0 °F 87% 30.03 in 10.0 mi WSW 4.6 mph - N/A   Scattered Clouds